GFSGBSN_850_temp_108.txt.gz
Temp
6 6 6 5 5 4 3 3 3 3 3 3 3 3 3 3 3 3 3 3 3 4 3 3 3 3 3 5 7 11 12 12 13 11 11 12 14 15 17 19 18 18 19 19 19 19 19
5 5 5 5 4 3 3 3 3 3 3 3 3 3 3 3 3 3 3 4 4 4 4 4 3 3 2 4 9 10 10 11 10 10 12 12 14 15 17 17 18 19 19 19 18 18 19
6 6 5 4 3 3 4 4 4 4 3 3 3 3 3 3 3 3 3 4 4 4 5 4 4 1 2 3 9 10 10 11 10 10 11 12 13 14 15 16 17 17 18 19 19 18 19
5 5 4 4 4 5 5 4 4 4 3 3 3 3 3 3 3 3 3 3 4 5 4 4 4 1 2 4 6 9 11 7 8 10 9 10 10 11 15 16 16 17 18 17 20 20 19
5 5 5 5 5 5 5 4 4 4 4 3 3 3 3 3 3 3 3 3 4 4 3 3 3 2 5 5 5 8 6 7 8 8 8 10 10 13 14 15 16 17 18 19 19 20 20
5 5 5 5 5 5 5 5 4 4 3 3 2 2 2 2 2 2 2 3 3 2 2 2 1 1 3 6 6 7 8 7 8 8 8 9 11 14 14 16 16 17 17 17 17 20 19
4 5 5 5 5 4 5 4 4 3 3 2 1 1 1 1 2 2 1 2 3 4 1 2 4 3 5 5 4 6 8 7 8 9 13 11 12 13 15 16 17 17 17 17 18 19 18
4 4 4 4 5 4 3 2 2 2 1 0 1 1 1 1 1 1 -0 1 -1 -1 -1 3 2 2 3 4 4 5 7 9 10 12 14 13 12 15 16 16 14 13 12 15 17 17 17
3 4 4 4 3 2 1 -0 -0 0 -0 -0 0 0 0 1 1 -0 -0 0 -1 -1 2 4 5 5 5 4 5 6 7 9 12 13 13 13 15 14 14 13 13 13 12 12 14 17 16
3 3 4 4 3 1 -0 -0 -0 -0 -1 -0 0 0 0 1 -0 0 1 -0 -1 -1 2 8 6 5 4 5 6 7 7 9 13 13 13 14 15 14 13 12 13 13 15 15 14 12 15
1 2 3 2 1 -0 -1 -1 -1 -1 -0 -0 0 0 0 1 0 1 0 -0 -1 -0 5 8 3 3 2 6 9 10 8 9 11 13 13 13 13 13 13 14 14 14 15 14 14 14 14
1 2 2 1 -0 -1 -1 -1 -1 -0 -1 0 0 0 0 -0 1 1 0 0 -0 3 5 6 5 3 3 8 8 9 8 9 11 13 13 14 14 15 14 13 13 14 12 13 14 14 13
-0 0 1 -0 -1 -1 -1 -1 -1 -1 -0 -0 0 0 1 1 0 1 1 0 4 6 7 6 6 2 4 7 9 10 9 10 11 10 11 13 13 14 14 13 12 13 13 13 12 12 14
-2 -1 -1 -2 -2 -1 -1 -1 -1 -1 -0 0 1 1 1 1 1 1 0 4 5 5 5 7 6 4 4 4 7 10 11 11 11 12 14 12 12 13 14 14 13 13 14 14 12 14 15
-2 -2 -2 -2 -2 -1 -1 -1 -1 -1 -0 0 1 0 0 1 1 1 2 5 4 4 5 5 7 4 5 6 4 8 7 7 8 9 12 13 13 14 15 15 15 13 13 16 14 14 14
-2 -2 -2 -2 -2 -1 -1 -1 -1 -0 -0 0 0 -0 -0 1 0 0 3 2 4 5 5 6 5 6 3 4 4 5 7 5 7 8 10 11 12 13 13 14 15 14 15 12 14 13 13
-3 -3 -2 -2 -2 -2 -1 -1 -1 -0 -0 0 -1 2 0 0 0 2 2 3 4 4 4 5 5 5 6 5 6 4 4 5 5 7 10 10 12 12 13 13 13 12 13 13 15 15 14
-3 -3 -2 -2 -2 -2 -1 -1 -1 -1 -0 -0 -1 2 0 1 3 2 4 3 2 4 5 5 6 6 6 6 6 7 6 6 6 4 6 8 9 12 13 13 15 14 13 14 13 13 14
-3 -3 -3 -3 -3 -2 -1 -1 -1 -1 -1 -1 0 1 -0 -0 2 3 4 4 3 4 5 5 5 6 6 6 5 7 7 7 7 7 6 6 9 11 11 12 13 13 14 15 15 15 14
-3 -3 -2 -3 -3 -2 -1 -1 -1 -1 -1 -1 -1 1 2 1 1 2 3 4 4 4 4 5 5 6 5 6 7 6 7 8 7 7 4 7 9 9 11 11 12 12 13 13 14 14 14
-3 -3 -3 -3 -3 -2 -2 -1 -1 -1 -1 -1 -2 0 0 2 3 3 3 3 4 4 5 5 5 5 4 4 6 6 7 7 8 5 5 6 8 9 10 10 10 11 12 13 13 14 13
-3 -3 -3 -3 -3 -3 -2 -2 -1 -1 -1 -2 -2 0 -0 2 1 2 3 4 3 4 4 5 5 5 5 4 5 5 6 7 7 7 6 5 7 6 8 10 10 10 12 12 13 13 13
-3 -3 -3 -3 -4 -3 -2 -2 -1 -1 -1 -2 -2 -1 -0 1 2 3 3 3 3 3 4 4 4 4 5 6 5 5 5 6 7 7 5 5 6 8 9 10 10 9 11 12 13 12 12
-3 -3 -3 -4 -4 -3 -2 -2 -1 -1 -1 -1 -1 -1 -0 2 3 3 3 3 3 3 3 3 3 4 5 4 4 6 6 6 6 7 7 5 6 8 8 9 8 10 11 12 12 12 11
-3 -3 -3 -4 -4 -3 -3 -2 -2 -1 -1 -1 -1 -2 -1 1 3 3 3 3 3 3 3 3 4 3 3 3 6 7 7 7 7 7 8 8 6 7 7 9 10 11 7 10 11 8 7
-3 -4 -4 -4 -4 -3 -3 -2 -2 -2 -1 -1 -1 -2 -2 -1 3 2 3 2 3 4 4 3 3 3 3 5 5 5 6 5 7 7 7 7 6 6 8 8 8 7 5 8 10 7 7
-3 -3 -4 -4 -4 -4 -3 -2 -2 -2 -2 -1 -1 -1 -2 -2 0 1 3 3 2 3 4 4 2 3 3 4 5 5 6 7 7 7 5 6 5 6 7 8 9 7 6 6 8 6 4
-3 -4 -4 -4 -4 -4 -3 -3 -2 -2 -2 -1 -1 -1 -1 -2 -0 -0 1 1 2 2 3 3 3 2 4 4 5 6 5 7 7 7 5 7 6 7 7 7 7 4 8 7 4 3 3
-3 -4 -4 -4 -4 -4 -4 -3 -3 -2 -2 -1 -1 -1 -1 -2 -1 -1 -1 -0 0 1 1 1 2 2 3 3 5 5 5 6 6 6 6 5 5 5 5 5 2 1 1 2 3 3 2

GFSGBSN_850_temp_111.txt.gz
Temp
5 6 6 5 5 3 4 4 4 4 4 3 3 4 4 4 5 5 5 6 6 6 6 5 5 4 3 7 10 12 11 12 12 12 13 14 16 17 19 20 21 22 22 22 22 22 23
5 5 6 5 5 4 4 5 5 4 4 3 4 5 6 6 6 6 6 6 6 6 6 5 5 4 3 8 10 10 11 11 11 12 13 14 16 17 18 20 21 22 22 22 21 22 21
5 5 6 6 5 5 6 5 5 5 4 4 5 6 6 6 5 5 5 6 6 6 6 6 5 4 4 6 9 9 10 10 11 12 14 14 15 16 17 19 19 20 21 21 22 22 22
5 5 6 6 6 6 5 5 5 5 5 5 5 5 5 5 5 5 4 5 5 6 6 6 6 3 5 7 7 7 8 9 11 11 11 13 14 15 16 18 19 19 20 19 22 22 22
4 5 5 6 6 5 5 5 5 5 5 5 5 5 5 4 3 4 5 6 6 6 5 5 4 5 6 8 8 8 7 8 10 11 11 11 12 13 15 17 17 19 18 19 21 23 23
4 4 5 5 5 5 5 5 5 5 5 4 4 4 4 3 4 4 5 6 5 4 4 5 5 5 7 8 8 8 7 9 10 10 11 11 13 15 16 17 17 18 19 20 21 24 23
3 3 4 4 4 4 5 5 5 5 4 4 3 3 4 4 3 4 4 5 6 7 6 5 6 6 6 7 7 8 8 8 8 10 12 12 13 14 16 17 19 19 19 19 21 23 21
3 3 3 3 3 5 5 5 5 4 4 4 3 3 3 3 3 3 3 4 3 1 1 4 6 7 8 6 7 8 7 6 6 11 13 14 13 16 18 18 18 18 18 17 20 20 19
2 2 1 3 4 4 5 5 4 4 4 3 2 2 3 3 2 2 3 3 3 1 3 6 8 8 5 4 5 7 7 6 5 10 13 14 15 17 18 17 17 18 17 16 18 18 16
0 1 1 2 2 4 4 5 4 3 2 1 1 1 2 2 1 3 5 3 2 1 5 10 10 7 5 4 5 8 7 7 7 7 14 15 17 17 17 17 17 17 17 16 15 14 13
-1 0 -0 1 3 2 4 3 2 1 1 1 1 1 1 1 1 3 3 2 2 1 8 11 10 7 6 7 8 9 9 9 9 8 10 15 16 16 16 17 17 16 17 15 15 14 15
-1 -2 -1 1 0 2 3 2 2 1 1 1 1 1 1 2 2 3 2 1 2 3 8 10 10 9 8 6 8 10 11 10 11 11 8 16 17 16 17 17 17 16 15 15 15 15 14
-2 -2 0 -1 1 1 1 1 1 1 1 1 1 1 1 1 3 1 1 4 5 8 10 9 9 9 8 6 5 12 12 11 11 11 9 13 12 17 17 16 16 15 13 10 10 12 13
-2 -1 -2 -0 -1 -0 1 0 0 1 1 1 1 1 1 1 1 1 3 5 6 9 8 9 9 9 6 4 7 7 12 12 13 14 13 13 12 14 16 16 14 15 15 12 11 12 14
-2 -2 -2 -2 -1 -0 0 -0 0 0 1 1 1 2 2 1 0 1 5 7 8 7 8 8 10 8 8 9 4 4 9 8 11 13 11 13 14 17 16 17 17 15 15 17 14 15 14
-2 -2 -2 -2 -1 -0 -0 -0 0 0 1 1 1 3 2 1 1 3 6 5 8 8 8 8 8 8 7 8 6 4 6 6 6 8 11 13 13 16 16 17 17 16 17 14 15 13 14
-2 -2 -2 -2 -1 -1 -1 -0 -0 1 1 1 1 5 2 2 2 6 5 7 7 7 7 7 7 7 8 7 8 4 4 7 7 7 10 12 13 14 16 14 15 15 15 16 16 16 15
-3 -3 -2 -2 -2 -1 -1 -1 -0 0 1 1 3 5 2 2 6 5 7 6 5 7 7 8 8 8 8 8 8 7 7 7 6 5 6 9 10 13 14 16 17 17 16 16 15 15 16
-3 -3 -2 -2 -2 -2 -1 -1 -0 0 0 2 5 5 2 2 5 7 7 7 6 7 8 7 7 8 9 8 7 9 9 9 9 7 5 6 10 8 9 14 16 15 16 16 16 16 14
-3 -3 -2 -2 -2 -2 -1 -1 -1 0 0 0 2 3 5 5 4 5 6 6 7 7 7 7 8 9 8 7 9 8 9 10 9 8 6 7 8 8 9 8 14 14 15 16 16 14 15
-3 -3 -2 -2 -2 -2 -1 -1 -1 -0 0 0 1 3 4 4 5 6 6 6 7 6 7 8 8 8 7 7 8 8 9 9 10 8 9 8 8 10 10 10 13 11 12 15 15 15 14
-3 -3 -3 -3 -3 -2 -2 -2 -1 -1 -0 -0 1 3 4 6 4 5 4 7 6 6 7 7 7 7 7 7 8 8 8 8 8 10 9 8 7 10 11 13 13 13 14 15 15 16 16
-2 -3 -3 -3 -3 -3 -2 -2 -1 -1 -1 0 1 2 3 4 6 6 6 6 6 6 6 6 6 6 7 8 7 7 7 7 8 8 8 7 7 9 10 12 12 11 13 14 15 15 15
-3 -3 -3 -3 -3 -3 -2 -2 -1 -1 -1 0 1 1 2 3 6 6 6 6 6 6 5 5 5 6 7 6 6 7 9 10 9 9 8 7 7 9 9 10 9 12 14 14 14 13 13
-2 -3 -3 -3 -3 -3 -3 -2 -2 -1 -1 -1 -0 0 2 3 5 6 6 6 5 6 6 6 6 6 5 5 6 8 9 8 9 10 10 9 7 8 9 10 12 13 9 8 9 8 9
-2 -2 -3 -3 -3 -3 -3 -2 -2 -1 -1 -1 -1 -1 -1 2 4 5 5 5 6 6 6 6 5 5 5 6 6 6 8 9 8 7 10 10 9 8 9 9 9 6 8 7 9 7 6
-3 -3 -3 -3 -3 -3 -3 -3 -2 -2 -1 -1 -1 -1 -2 -1 3 4 5 5 5 5 5 5 5 5 5 5 6 7 8 10 8 6 5 7 7 7 9 9 9 8 9 7 7 5 5
-3 -3 -3 -3 -3 -3 -3 -3 -3 -2 -2 -1 -1 -1 -1 -1 2 2 3 3 4 4 3 3 5 3 5 5 6 7 7 8 8 9 7 7 7 6 9 8 7 5 7 5 2 3 4
-3 -3 -3 -3 -3 -3 -3 -3 -3 -2 -2 -2 -1 -1 -1 -2 -1 0 0 1 2 3 2 3 3 3 4 4 6 6 5 7 7 7 9 6 6 5 5 4 2 2 1 2 3 4 4

GFSGBSN_850_temp_117.txt.gz
Temp
5 5 6 5 6 7 6 7 7 7 7 8 8 8 7 8 8 8 8 8 8 8 8 8 7 7 8 7 11 11 10 11 11 11 12 12 12 13 13 14 15 16 17 18 19 20 20
4 5 5 5 5 5 4 6 6 7 6 7 7 7 7 7 7 8 8 8 8 9 9 8 7 7 5 4 9 10 10 10 11 11 11 11 12 13 13 15 15 17 17 18 19 20 20
4 4 6 6 5 4 2 3 5 6 6 6 6 7 7 7 7 7 8 8 8 9 9 7 7 6 4 8 9 10 9 9 10 10 9 10 10 11 13 13 16 17 16 17 18 19 20
3 3 4 5 3 3 4 3 5 5 6 6 6 6 6 6 7 7 8 9 9 8 8 7 6 5 4 8 9 9 9 10 10 10 10 10 10 10 10 13 13 13 14 14 17 18 19
3 3 3 4 4 3 4 4 5 6 6 6 6 6 6 6 7 7 8 9 8 7 8 6 6 5 5 9 9 9 9 9 9 9 9 10 10 10 10 10 11 12 12 13 16 18 19
2 2 2 3 4 3 5 4 5 6 5 6 6 5 6 6 7 7 7 9 8 8 7 6 6 5 7 8 9 9 9 9 9 9 9 9 9 8 8 8 8 11 12 12 14 16 18
2 1 2 3 3 3 2 3 4 5 5 5 5 5 6 6 6 6 6 7 6 7 6 6 7 5 7 10 9 9 9 9 9 8 7 9 7 6 8 9 10 11 12 13 15 17 17
1 1 3 2 2 1 1 2 4 4 4 5 5 6 6 6 5 5 5 5 4 4 2 7 7 7 9 9 8 9 10 9 9 8 8 8 6 8 9 9 9 10 10 12 15 17 17
1 2 1 1 -0 -0 2 3 4 4 4 4 5 6 5 5 5 5 5 4 4 3 2 6 9 9 10 10 9 10 10 9 8 7 7 7 6 9 9 7 7 10 11 12 13 13 13
-0 0 -0 -1 -1 0 3 4 3 3 2 2 4 4 5 5 5 5 4 4 3 3 -0 9 10 11 11 11 11 10 9 9 7 6 7 4 6 5 6 7 7 9 11 13 14 14 12
0 -0 -1 -1 -1 2 2 4 4 3 2 3 3 3 4 4 5 4 4 4 3 3 6 12 11 11 11 10 10 10 9 8 7 6 4 6 7 5 4 7 10 11 12 12 14 13 10
-0 -1 -1 -1 -1 2 3 2 2 3 2 2 2 3 3 3 3 3 4 4 3 3 7 11 10 10 9 10 10 10 9 10 10 8 7 6 8 7 6 9 11 13 12 13 13 10 8
-1 -1 -2 -2 -1 -0 1 2 2 1 2 2 2 3 3 3 3 3 4 4 3 4 10 9 8 9 9 9 9 9 7 8 8 7 8 10 11 11 10 10 12 12 12 10 8 8 8
-1 -2 -2 -2 -2 1 -1 0 1 2 2 2 3 3 3 3 3 4 4 2 4 8 8 9 9 9 8 8 8 8 6 6 8 7 6 8 7 9 10 10 12 12 11 8 8 8 10
-1 -2 -2 -2 -2 -2 0 0 1 1 2 2 3 3 3 4 4 3 3 1 6 7 8 8 9 7 7 8 6 5 4 6 8 8 6 7 8 9 11 10 10 12 11 12 11 12 10
-1 -2 -2 -2 -2 -1 -0 0 1 1 2 2 3 3 4 4 4 4 1 5 8 9 9 8 7 8 6 7 6 2 6 6 7 8 8 8 7 9 8 9 14 13 13 9 9 9 10
-1 -2 -1 -1 -2 -1 0 0 0 1 2 2 3 3 4 5 4 3 -1 5 8 8 9 8 8 7 7 7 7 6 6 8 8 8 8 8 8 9 9 10 12 12 12 12 9 11 10
-2 -2 -2 -2 -1 -1 -0 -0 1 1 2 3 3 2 4 5 3 4 1 8 8 8 9 9 8 8 7 7 7 7 6 8 9 8 6 8 6 7 9 11 13 12 11 13 10 11 12
-2 -2 -2 -2 -2 -1 -1 -0 0 1 2 2 2 5 5 5 2 2 7 8 9 8 8 8 8 8 7 6 6 7 7 9 8 8 7 7 6 6 8 10 10 10 12 14 13 12 12
-2 -2 -2 -2 -2 -2 -1 -0 0 1 2 2 3 0 5 5 6 6 6 7 7 8 8 9 8 7 7 6 7 6 7 8 8 8 8 8 7 5 5 5 5 7 10 12 14 11 12
-2 -2 -2 -2 -2 -2 -1 -1 0 1 1 2 2 1 5 1 3 5 6 6 6 7 8 8 8 7 6 4 5 5 6 6 7 8 7 7 6 7 8 9 5 6 9 10 10 12 12
-2 -2 -2 -2 -2 -2 -1 -1 0 1 1 2 3 3 4 5 6 6 5 6 7 7 6 6 6 6 5 5 6 4 5 5 5 7 6 6 6 6 7 10 9 10 9 10 10 10 11
-2 -2 -2 -2 -2 -2 -2 -1 -0 0 1 1 2 3 3 4 4 4 5 7 7 7 7 7 6 5 5 6 6 6 6 6 6 6 5 6 6 6 7 10 10 7 6 7 7 7 10
-2 -2 -2 -2 -2 -2 -2 -1 -1 -0 1 1 1 2 3 -0 3 6 7 7 7 7 6 7 7 6 6 6 6 7 7 7 7 7 7 5 6 6 6 7 8 6 8 8 5 4 4
-2 -2 -2 -2 -2 -2 -2 -1 -1 -0 0 0 1 1 2 -1 3 5 6 6 6 6 6 7 5 6 6 6 3 4 5 7 9 7 6 7 7 4 5 6 8 6 5 5 6 4 3
-2 -2 -2 -2 -2 -2 -3 -2 -1 -1 -0 -0 -0 0 1 1 2 4 4 4 3 2 3 5 5 5 6 4 1 4 4 6 6 7 8 8 6 5 4 6 5 4 3 5 6 3 2
-2 -2 -2 -2 -2 -3 -3 -3 -2 -1 -1 -0 -0 0 0 0 2 2 2 1 4 3 2 4 4 4 5 -0 1 3 5 7 5 5 4 4 4 4 4 5 4 2 3 5 5 3 2
-2 -2 -2 -2 -2 -3 -3 -3 -2 -2 -1 -1 -1 -0 -0 -1 1 1 2 2 2 3 1 3 1 2 1 0 2 2 3 4 5 4 4 4 3 1 3 4 4 0 3 3 2 1 1
-2 -2 -2 -2 -3 -3 -3 -3 -3 -2 -1 -1 -1 -1 -1 -1 -0 2 2 3 3 3 2 3 3 3 4 -0 -0 1 1 2 3 4 5 4 4 3 2 2 0 -1 -1 -1 -0 -0 0

GFSGBSN_850_temp_120.txt.gz
Temp
9 8 8 7 8 8 8 8 8 8 7 8 8 9 9 9 9 9 9 9 9 9 8 8 8 8 9 8 11 11 11 10 10 10 11 10 10 11 10 12 12 12 14 15 16 17 17
9 7 8 7 7 8 8 9 8 7 6 7 8 8 8 8 8 9 9 9 9 8 8 7 7 7 6 5 10 10 9 10 10 10 10 10 10 10 10 11 11 13 13 14 15 16 17
7 6 7 6 6 6 7 8 8 8 8 7 7 8 8 8 8 8 8 8 9 8 7 6 6 6 6 9 10 10 10 9 9 9 9 9 9 9 9 9 10 12 10 12 14 16 16
7 6 6 5 5 6 7 8 8 8 8 7 7 7 7 7 7 8 8 8 9 8 7 6 6 5 7 9 10 10 9 9 10 9 9 9 9 9 9 10 10 9 10 9 13 15 16
6 6 5 5 5 6 6 7 8 8 7 7 7 7 7 7 7 7 8 8 9 8 7 6 6 5 7 8 9 10 9 9 9 9 9 9 9 9 9 7 7 8 7 9 11 14 14
6 5 4 5 5 5 5 6 7 7 6 6 7 7 6 7 6 7 7 8 8 8 7 6 5 4 8 10 10 9 10 9 9 9 9 9 9 6 6 5 5 8 8 9 9 12 13
6 4 3 3 2 3 3 5 6 6 6 7 6 6 6 6 6 5 7 7 8 8 7 7 7 7 9 10 9 10 10 9 10 9 7 8 5 5 6 7 7 8 7 7 9 11 11
4 3 2 1 1 2 4 5 5 5 5 5 6 6 6 6 5 4 4 5 4 5 3 7 7 6 9 9 7 10 10 9 8 7 7 6 5 7 8 8 8 7 7 6 9 11 11
3 3 2 1 1 1 3 4 5 5 5 5 6 6 6 6 5 4 4 4 4 4 2 7 9 8 11 10 9 10 10 9 7 6 6 5 7 9 8 7 7 6 6 6 7 10 11
3 2 1 0 1 -0 2 4 4 4 4 5 5 6 5 6 5 4 4 4 4 4 1 9 8 10 10 10 9 10 10 9 7 6 6 4 7 7 7 7 7 3 7 7 7 8 8
2 1 0 0 0 1 0 1 2 3 3 3 4 4 5 5 4 4 4 4 4 4 5 10 10 11 10 10 10 10 9 8 7 6 4 6 6 5 5 7 7 4 6 7 8 9 8
1 0 0 -1 -1 -1 -0 1 2 3 3 3 3 4 3 3 4 4 4 4 4 3 6 9 9 8 7 9 10 10 8 9 9 7 5 6 8 7 7 8 9 7 7 8 9 9 7
-0 -0 -1 -1 -1 -1 -1 0 0 2 2 2 3 3 2 4 4 4 4 4 3 4 9 7 7 7 7 7 8 8 7 7 6 5 6 7 10 9 9 8 9 8 7 6 6 6 8
-0 -1 -1 -1 -1 -1 2 0 1 1 2 3 2 3 3 4 4 4 4 2 5 7 7 8 8 7 7 7 7 7 6 5 8 7 6 5 6 9 10 6 7 8 8 7 7 9 8
-1 -1 -2 -2 -1 -2 -1 0 0 2 1 2 2 3 4 4 4 4 4 2 5 7 7 7 7 7 6 7 5 5 3 5 7 7 6 6 7 10 10 9 9 10 8 10 10 9 9
-1 -2 -2 -2 -1 -1 -0 1 1 0 2 3 3 3 4 4 4 4 1 5 7 8 8 8 6 7 5 5 5 -1 5 6 6 7 7 7 6 9 9 9 10 10 11 9 9 8 9
-1 -2 -2 -2 -2 -2 0 -0 0 1 2 3 3 3 4 4 4 4 0 3 7 8 8 7 7 6 6 5 6 1 4 6 6 7 7 6 6 8 9 6 7 9 9 8 9 8 8
-1 -2 -1 -1 -2 -1 -1 0 0 2 2 3 3 1 4 3 3 1 -0 6 8 8 8 8 8 7 6 5 5 6 6 6 7 6 5 6 5 6 8 10 9 10 9 9 8 8 8
-1 -1 -1 -2 -2 -1 -1 -0 2 1 2 3 4 4 3 3 0 1 4 7 7 7 8 8 7 7 7 6 4 5 6 7 7 6 5 6 6 5 7 9 8 6 7 8 7 8 8
-1 -1 -2 -2 -2 -2 -1 -0 1 2 2 3 3 -0 3 3 4 4 5 6 6 8 8 8 8 7 6 5 6 4 5 6 6 6 8 6 6 5 5 5 6 6 7 8 8 7 10
-2 -1 -2 -2 -2 -2 -1 -0 1 2 2 3 3 1 4 -2 1 4 5 6 5 6 7 7 6 5 5 4 4 4 5 5 6 7 6 5 4 5 7 8 6 6 6 8 9 9 11
-2 -2 -2 -2 -2 -2 -0 -1 0 1 2 2 3 2 4 3 6 5 5 5 6 6 6 6 5 5 5 4 4 3 4 4 4 5 5 4 4 5 6 9 5 6 8 7 7 6 8
-2 -2 -2 -2 -2 -1 -1 -1 -0 1 2 2 2 3 3 2 2 1 3 6 6 6 6 6 6 5 3 4 5 5 5 5 4 5 4 4 4 4 6 8 8 6 4 5 4 4 6
-2 -2 -2 -2 -2 -2 -1 -1 -0 0 1 2 2 2 3 -1 1 3 6 6 5 5 5 6 5 5 5 6 6 6 5 4 5 4 5 4 4 4 5 6 6 4 4 3 3 3 2
-2 -2 -2 -2 -2 -2 -2 -1 -0 0 0 1 2 2 2 -2 2 3 4 4 4 5 4 4 4 5 5 5 2 4 4 6 6 7 6 4 5 3 4 5 5 5 3 3 3 3 2
-2 -2 -2 -2 -2 -2 -2 -1 -1 -1 -0 1 1 1 1 1 0 2 3 3 1 1 1 4 5 5 5 1 -0 3 4 5 6 6 6 6 5 4 4 6 5 3 2 3 3 3 2
-2 -2 -2 -2 -2 -2 -2 -2 -1 -1 -0 0 0 1 1 1 1 2 1 1 3 2 0 1 3 3 4 -2 1 1 3 5 4 4 3 3 3 3 3 4 4 1 1 2 4 2 1
-2 -2 -2 -2 -2 -3 -3 -2 -2 -1 -1 -0 -0 0 1 1 1 2 2 2 2 2 -0 2 0 2 -0 -0 1 1 1 3 4 3 3 3 2 2 2 3 2 -0 1 2 0 -1 0
-2 -2 -2 -2 -2 -3 -3 -3 -2 -2 -1 -1 -0 -1 -1 0 1 2 3 3 3 3 2 2 2 2 2 -2 -2 -0 0 0 2 1 4 3 3 2 2 1 -0 -2 -1 -2 -1 -1 -2